TimeEST,TemperatureF,Dew PointF,Humidity,Sea Level PressureIn,VisibilityMPH,Wind Direction,Wind SpeedMPH,Gust SpeedMPH,PrecipitationIn,Events,Conditions,WindDirDegrees,DateUTC
12:15 AM,44.6,32.0,61,30.08,7.0,NE,3.5,-,N/A,,Clear,40,2013-01-21 05:15:00
12:35 AM,42.8,32.0,66,30.08,10.0,NNE,3.5,-,N/A,,Clear,30,2013-01-21 05:35:00
12:55 AM,42.8,32.0,66,30.07,10.0,Calm,Calm,-,N/A,,Clear,0,2013-01-21 05:55:00
1:15 AM,41.0,32.0,70,30.07,10.0,Calm,Calm,-,N/A,,Clear,0,2013-01-21 06:15:00
1:35 AM,41.0,32.0,70,30.07,10.0,Calm,Calm,-,N/A,,Clear,0,2013-01-21 06:35:00
1:55 AM,39.2,32.0,75,30.07,10.0,Calm,Calm,-,N/A,,Clear,0,2013-01-21 06:55:00
2:15 AM,39.2,32.0,75,30.07,10.0,Calm,Calm,-,N/A,,Clear,0,2013-01-21 07:15:00
2:35 AM,41.0,32.0,70,30.07,10.0,Calm,Calm,-,N/A,,Clear,0,2013-01-21 07:35:00
2:55 AM,39.2,32.0,75,30.07,10.0,Calm,Calm,-,N/A,,Clear,0,2013-01-21 07:55:00
4:15 AM,37.4,32.0,81,30.06,10.0,Calm,Calm,-,N/A,,Clear,0,2013-01-21 09:15:00
4:55 AM,35.6,32.0,87,30.07,10.0,North,3.5,-,N/A,,Clear,360,2013-01-21 09:55:00
5:15 AM,35.6,30.2,81,30.06,10.0,Calm,Calm,-,N/A,,Clear,0,2013-01-21 10:15:00
5:35 AM,33.8,30.2,87,30.06,10.0,Calm,Calm,-,N/A,,Clear,0,2013-01-21 10:35:00
5:55 AM,33.8,32.0,93,30.06,10.0,Calm,Calm,-,N/A,,Clear,0,2013-01-21 10:55:00
6:15 AM,33.8,30.2,87,30.06,10.0,Calm,Calm,-,N/A,,Clear,0,2013-01-21 11:15:00
6:35 AM,35.6,30.2,81,30.06,10.0,Calm,Calm,-,N/A,,Clear,0,2013-01-21 11:35:00
6:55 AM,33.8,30.2,87,30.06,10.0,Calm,Calm,-,N/A,,Clear,0,2013-01-21 11:55:00
7:15 AM,32.0,30.2,93,30.06,10.0,Calm,Calm,-,N/A,,Clear,0,2013-01-21 12:15:00
7:35 AM,33.8,30.2,87,30.07,10.0,Calm,Calm,-,N/A,,Clear,0,2013-01-21 12:35:00
7:55 AM,35.6,32.0,87,30.08,10.0,Calm,Calm,-,N/A,,Clear,0,2013-01-21 12:55:00
8:15 AM,35.6,32.0,87,30.07,10.0,Calm,Calm,-,N/A,,Clear,0,2013-01-21 13:15:00
8:35 AM,37.4,32.0,81,30.08,10.0,Calm,Calm,-,N/A,,Clear,0,2013-01-21 13:35:00
8:55 AM,41.0,32.0,70,30.08,10.0,Calm,Calm,-,N/A,,Clear,0,2013-01-21 13:55:00
9:15 AM,44.6,33.8,66,30.08,10.0,SSE,3.5,-,N/A,,Clear,150,2013-01-21 14:15:00
9:35 AM,48.2,32.0,54,30.08,10.0,SSE,5.8,-,N/A,,Clear,150,2013-01-21 14:35:00
9:55 AM,50.0,32.0,50,30.08,10.0,SSE,5.8,-,N/A,,Clear,160,2013-01-21 14:55:00
10:15 AM,51.8,32.0,47,30.08,10.0,SSE,9.2,-,N/A,,Clear,160,2013-01-21 15:15:00
10:35 AM,51.8,32.0,47,30.07,10.0,SSE,8.1,-,N/A,,Clear,160,2013-01-21 15:35:00
10:55 AM,53.6,32.0,44,30.07,10.0,SE,5.8,-,N/A,,Clear,140,2013-01-21 15:55:00
11:15 AM,53.6,32.0,44,30.06,10.0,South,5.8,-,N/A,,Clear,170,2013-01-21 16:15:00
11:35 AM,55.4,32.0,41,30.05,10.0,SSE,4.6,-,N/A,,Clear,150,2013-01-21 16:35:00
11:55 AM,55.4,32.0,41,30.03,10.0,SSE,3.5,-,N/A,,Clear,160,2013-01-21 16:55:00
12:15 PM,59.0,32.0,36,30.02,10.0,SW,3.5,-,N/A,,Clear,220,2013-01-21 17:15:00
12:35 PM,59.0,32.0,36,30.01,10.0,SSW,3.5,-,N/A,,Clear,210,2013-01-21 17:35:00
12:55 PM,59.0,32.0,36,29.99,10.0,SSW,6.9,-,N/A,,Clear,200,2013-01-21 17:55:00
1:35 PM,60.8,30.2,31,29.97,10.0,West,5.8,-,N/A,,Clear,270,2013-01-21 18:35:00
1:55 PM,62.6,30.2,30,29.97,10.0,WSW,8.1,-,N/A,,Clear,250,2013-01-21 18:55:00
2:15 PM,60.8,30.2,31,29.96,10.0,West,3.5,-,N/A,,Clear,270,2013-01-21 19:15:00
2:35 PM,60.8,30.2,31,29.96,10.0,WSW,4.6,-,N/A,,Clear,250,2013-01-21 19:35:00
2:55 PM,60.8,30.2,31,29.96,10.0,WSW,6.9,-,N/A,,Clear,250,2013-01-21 19:55:00
3:15 PM,60.8,32.0,34,29.95,10.0,WSW,6.9,-,N/A,,Clear,240,2013-01-21 20:15:00
3:35 PM,60.8,30.2,31,29.95,10.0,West,6.9,-,N/A,,Clear,260,2013-01-21 20:35:00
3:55 PM,60.8,30.2,31,29.95,10.0,WSW,4.6,-,N/A,,Clear,240,2013-01-21 20:55:00
4:15 PM,60.8,30.2,31,29.95,10.0,SW,5.8,-,N/A,,Clear,230,2013-01-21 21:15:00
4:35 PM,60.8,30.2,31,29.94,10.0,Calm,Calm,-,N/A,,Clear,0,2013-01-21 21:35:00
4:55 PM,59.0,30.2,34,29.94,10.0,SW,6.9,-,N/A,,Clear,220,2013-01-21 21:55:00
5:15 PM,59.0,30.2,34,29.94,10.0,SW,5.8,-,N/A,,Clear,220,2013-01-21 22:15:00
5:35 PM,57.2,32.0,38,29.94,10.0,SSW,4.6,-,N/A,,Clear,210,2013-01-21 22:35:00
5:55 PM,55.4,32.0,41,29.95,10.0,SW,3.5,-,N/A,,Clear,230,2013-01-21 22:55:00
6:15 PM,55.4,32.0,41,29.95,10.0,SW,4.6,-,N/A,,Clear,220,2013-01-21 23:15:00
6:55 PM,55.4,30.2,38,29.97,10.0,WSW,5.8,-,N/A,,Clear,240,2013-01-21 23:55:00
7:15 PM,53.6,30.2,41,29.98,10.0,WSW,6.9,-,N/A,,Clear,250,2013-01-22 00:15:00
7:55 PM,51.8,30.2,44,29.99,10.0,WNW,5.8,-,N/A,,Clear,300,2013-01-22 00:55:00
8:35 PM,50.0,23.0,35,30.01,10.0,WNW,8.1,-,N/A,,Clear,300,2013-01-22 01:35:00
8:55 PM,48.2,21.2,34,30.01,10.0,WNW,5.8,-,N/A,,Clear,290,2013-01-22 01:55:00
9:15 PM,46.4,19.4,34,30.02,10.0,WNW,3.5,-,N/A,,Clear,290,2013-01-22 02:15:00
9:35 PM,44.6,21.2,39,30.02,10.0,WNW,4.6,-,N/A,,Clear,300,2013-01-22 02:35:00
9:55 PM,44.6,19.4,37,30.02,10.0,WNW,5.8,-,N/A,,Clear,290,2013-01-22 02:55:00
10:15 PM,44.6,19.4,37,30.02,10.0,West,4.6,-,N/A,,Clear,280,2013-01-22 03:15:00
10:35 PM,44.6,19.4,37,30.02,10.0,West,3.5,-,N/A,,Clear,270,2013-01-22 03:35:00
11:15 PM,39.2,21.2,49,30.02,10.0,Calm,Calm,-,N/A,,Clear,0,2013-01-22 04:15:00
11:35 PM,37.4,23.0,56,30.03,10.0,Calm,Calm,-,N/A,,Clear,0,2013-01-22 04:35:00
11:55 PM,39.2,23.0,52,30.02,10.0,WSW,3.5,-,N/A,,Clear,250,2013-01-22 04:55:00